• Processing (Info)

  • MPEC 2010-L51 : 2010 LR33

    The following Minor Planet Electronic Circular may be linked-to from your own Web pages, but must not otherwise be redistributed electronically.

    A form allowing access to any MPEC is at the bottom of this page.


    Read MPEC 2010-L50 Read MPEC 2010-L52


    M.P.E.C. 2010-L51                                Issued 2010 June  9, 16:32 UT
    
         The Minor Planet Electronic Circulars contain information on unusual
             minor planets and routine data on comets.  They are published
       on behalf of Commission 20 of the International Astronomical Union by the
              Minor Planet Center, Smithsonian Astrophysical Observatory,
                              Cambridge, MA 02138, U.S.A.
    
                 Prepared using the Tamkin Foundation Computer Network
    
                                  MPC@CFA.HARVARD.EDU
           URL https://www.minorplanetcenter.org/iau/mpc.html  ISSN 1523-6714
    
                                       2010 LR33
    
    Observations:
         K10L33R* S2010 06 06.54053 23 40 44.70 -27 24 28.5          20   R EL051C51
         K10L33R  s2010 06 06.54053 1 + 5486.9913 - 2280.6918 - 3531.1232   EL051C51
         K10L33R  S2010 06 06.67284 23 41 51.38 -27 16 13.4                 EL051C51
         K10L33R  s2010 06 06.67284 1 + 5493.7454 - 2268.6441 - 3528.3644   EL051C51
         K10L33R  S2010 06 06.73893 23 42 24.64 -27 12 05.2                 EL051C51
         K10L33R  s2010 06 06.73893 1 + 5518.5043 - 2264.5293 - 3492.0619   EL051C51
         K10L33R  S2010 06 06.80514 23 42 57.92 -27 07 56.5          18   R EL051C51
         K10L33R  s2010 06 06.80514 1 + 5499.6601 - 2256.2356 - 3527.0038   EL051C51
         K10L33R  S2010 06 06.87123 23 43 31.06 -27 03 46.9                 EL051C51
         K10L33R  s2010 06 06.87123 1 + 5524.4969 - 2252.0184 - 3490.5556   EL051C51
         K10L33R  S2010 06 06.93744 23 44 04.29 -26 59 37.0                 EL051C51
         K10L33R  s2010 06 06.93744 1 + 5506.3478 - 2243.6736 - 3524.4660   EL051C51
         K10L33R  S2010 06 07.00353 23 44 37.38 -26 55 26.7                 EL051C51
         K10L33R  s2010 06 07.00353 1 + 5531.9306 - 2239.3594 - 3487.3849   EL051C51
         K10L33R  S2010 06 07.13584 23 45 43.49 -26 47 04.2                 EL051C51
         K10L33R  s2010 06 07.13584 1 + 5539.1795 - 2227.0772 - 3483.9715   EL051C51
         K10L33R QC2010 06 08.81395 23 59 27.635-24 58 15.73         18.0 V EL051E12
         K10L33R QC2010 06 08.81891 23 59 29.950-24 57 56.24         18.0 V EL051E12
         K10L33R 6C2010 06 09.61165 00 05 50.14 -24 05 28.0          18.0 R EL051F65
         K10L33R 6C2010 06 09.61249 00 05 50.54 -24 05 24.5          17.8 R EL051F65
         K10L33R 6C2010 06 09.61352 00 05 51.02 -24 05 20.5          17.9 R EL051F65
         K10L33R 6C2010 06 09.61461 00 05 51.53 -24 05 16.0          17.9 R EL051F65
         K10L33R 6C2010 06 09.61568 00 05 52.03 -24 05 11.6          18.0 R EL051F65
         K10L33R 6C2010 06 09.61709 00 05 52.68 -24 05 05.8          17.9 R EL051F65
         K10L33R 6C2010 06 09.61790 00 05 53.04 -24 05 02.8          17.9 R EL051F65
         K10L33R 6C2010 06 09.61873 00 05 53.45 -24 04 59.5          17.9 R EL051F65
         K10L33R 6C2010 06 09.61958 00 05 53.83 -24 04 56.2          17.8 R EL051F65
         K10L33R 6C2010 06 09.62041 00 05 54.23 -24 04 52.8          17.8 R EL051F65
         K10L33R 6C2010 06 09.62122 00 05 54.62 -24 04 49.5          17.9 R EL051F65
         K10L33R 6C2010 06 09.62197 00 05 54.93 -24 04 46.5          17.8 R EL051F65
         K10L33R 6C2010 06 09.62280 00 05 55.34 -24 04 43.4          17.6 R EL051F65
    
    Observer details:
    E12 Siding Spring Survey.  Observer R. H. McNaught.  0.5-m Uppsala Schmidt
        + CCD.
    F65 Haleakala-Faulkes Telescope North.  Observer R. Miles.  2.0-m f/10.0
        Ritchey-Chretien + CCD.
    C51 WISE.  Measurers A. Mainzer, E. Wright, J. Bauer, T. Grav, J. Dailey, J.
        Masiero, R. Cutri, R. McMillan, R. Walker.
        (http://wise.ssl.berkeley.edu/mission_sci.html)
    
    Orbital elements:
    2010 LR33                                           PHA, Earth MOID = 0.0282 AU
    Epoch 2010 July 23.0 TT = JDT 2455400.5                 MPC
    M   0.61165              (2000.0)            P               Q
    n   0.44399127     Peri.  332.89190     +0.82141806     +0.57016295
    a   1.7017134      Node   352.30314     -0.50303828     +0.71301188
    e   0.4655597      Incl.    5.85370     -0.26874684     +0.40807875
    P   2.22           H   18.3           G   0.15           U   8
    Residuals in seconds of arc
    100606 C51  0.2-  0.1-    100608 E12  0.1-  0.3-    100609 F65  0.4-  0.3-
    100606 C51  0.3-  0.3-    100608 E12  0.4-  0.4-    100609 F65  0.1-  0.3-
    100606 C51  0.2-  0.1-    100609 F65  0.5-  0.6-    100609 F65  0.3-  0.4-
    100606 C51  0.1-  0.8-    100609 F65  0.3-  0.4-    100609 F65  0.1-  0.3-
    100606 C51  0.6-  0.1-    100609 F65  0.3-  0.5-    100609 F65  0.1+  0.2-
    100606 C51  0.1-  0.6-    100609 F65  0.2-  0.3-    100609 F65  0.4-  0.2-
    100607 C51  0.1-  0.3-    100609 F65  0.2-  0.2-    100609 F65  0.0   0.4-
    100607 C51  0.4-  0.1-    100609 F65  0.2-  0.0
    
    Ephemeris:
    2010 LR33                a,e,i = 1.70, 0.47, 6                   q = 0.9095
    Date    TT    R. A. (2000) Decl.     Delta      r     Elong.  Phase     V
    2010 06 03    23 10.11   -30 50.9    0.277    1.078    95.7    69.5    18.1
    2010 06 13    00 31.58   -20 11.9    0.275    1.021    83.4    81.1    18.4
    2010 06 23    01 35.67   -08 43.1    0.301    0.974    73.3    89.4    18.8
    2010 07 03    02 25.29   +01 06.2    0.347    0.938    67.1    93.0    19.2
    2010 07 13    03 05.88   +08 46.4    0.405    0.916    64.1    92.4    19.4
    2010 07 23    03 41.35   +14 38.6    0.467    0.910    63.5    89.1    19.6
    2010 08 02    04 14.03   +19 08.2    0.530    0.920    64.4    84.2    19.7
    2010 08 12    04 44.81   +22 33.9    0.589    0.946    66.4    78.9    19.8
    2010 08 22    05 13.73   +25 09.6    0.640    0.986    69.1    73.5    19.9
    2010 09 01    05 40.51   +27 06.9    0.681    1.036    72.7    68.5    19.9
    2010 09 11    06 04.65   +28 36.1    0.710    1.094    77.0    63.7    20.0
    2010 09 21    06 25.50   +29 47.0    0.728    1.158    82.3    59.2    20.1
    2010 10 01    06 42.49   +30 48.2    0.734    1.225    88.4    54.8    20.1
    2010 10 11    06 54.86   +31 47.7    0.731    1.294    95.6    50.2    20.0
    2010 10 21    07 01.74   +32 51.3    0.721    1.363   104.0    45.1    20.0
    2010 10 31    07 02.22   +34 01.7    0.707    1.432   113.7    39.4    19.9
    2010 11 10    06 55.34   +35 15.9    0.695    1.500   124.8    32.8    19.8
    2010 11 20    06 40.84   +36 23.0    0.690    1.566   137.2    25.4    19.6
    2010 11 30    06 19.93   +37 05.7    0.700    1.631   150.3    17.4    19.5
    2010 12 10    05 55.67   +37 08.5    0.729    1.694   162.2    10.2    19.4
    2010 12 20    05 32.44   +36 29.0    0.783    1.755   166.4     7.6    19.5
    2010 12 30    05 13.83   +35 20.6    0.861    1.813   158.6    11.4    20.0
    2011 01 09    05 01.48   +34 02.0    0.962    1.869   147.7    16.3    20.5
    2011 01 19    04 55.39   +32 47.5    1.082    1.922   136.9    20.5    20.9
    2011 01 29    04 54.68   +31 44.2    1.218    1.973   126.9    23.5    21.3
    2011 02 08    04 58.29   +30 53.5    1.365    2.021   117.6    25.6    21.7
    2011 02 18    05 05.28   +30 13.7    1.521    2.067   109.1    26.8    22.0
    
    Timothy B. Spahr             (C) Copyright 2010 MPC           M.P.E.C. 2010-L51
    

    Read MPEC 2010-L50 Read MPEC 2010-L52


    MPEC number:

    Enter an MPEC number in one of the following forms:

    • 1997-B01 (the full form)
    • J97B01 (the packed version of the full form)
    • B01 (the abbreviated form)